カタログに戻る

BEIDOU 3M8

運用中ナビゲーションMEO
NORAD 43246·PAYLOAD·🇨🇳 China

打ち上げ Mar 29, 2018 から Xichang Satellite Launch Center

Loading…

次のパス (今後24時間)

TLE

最新Source: CelesTrak SupGP

元期: Sep 12, 2026, 00:00 UTC

1 43246C 18029B   26255.00000000  .00000000  00000+0  00000+0 0  2552
2 43246  54.1100 296.9311 0002815  13.0957  74.1061  1.86229460    12

AllMySatでBEIDOU 3M8をリアルタイム追跡

Download on the App Store